STARLINK-11247 [DTC]

Last updated on Sat Sep 28 2024 00:02:03 GMT+0000 (Coordinated Universal Time)

1 60720U 24152A 24271.50725545 .00005631 00000+0 51299-4 0 9992 2 60720 53.1593 200.3195 0001389 82.2850 277.8325 15.69714479 5876
UTC large
Height (km)
Speed (km/s)
/
Latitude / Longitude
Inclination (degrees)
Orbital Period (minutes)
Azimuth
Elevation
Range (km)
Doppler Factor

Next 0 passes for location: London (51.5072 / 0.1276)

Sorry there are no passes over London.